FW3057 Weather Reports


Display with metric or nautical units.
time (UTC)temp
F
wind
direction
speed
MPH
gust
MPH
rain 1hr
in
rain 24hr
in
rain mn
in
humidity
%
barometer
mb
20260903072309 67 276 7.0 14.0 0.00 0.00 0.00 89 1021.9
20260903071309 67 255 6.0 16.0 0.00 0.00 0.00 90 1021.8
20260903070309 67 255 6.0 12.0 0.00 0.00 0.00 90 1021.8
20260903065309 67 223 7.0 15.0 0.00 0.00 0.00 90 1021.6
20260903064309 66 279 5.0 12.0 0.00 0.00 0.00 90 1021.5
20260903063309 66 274 6.0 12.0 0.00 0.00 0.00 90 1021.5
20260903062309 66 219 6.0 12.0 0.00 0.00 0.00 90 1021.5
20260903061309 66 259 7.0 12.0 0.00 0.00 0.00 90 1021.4
20260903060309 66 225 5.0 12.0 0.00 0.00 0.00 90 1021.3
20260903055309 66 225 10.0 17.0 0.00 0.00 0.00 91 1021.4
20260903054309 66 216 7.0 12.0 0.00 0.00 0.00 91 1021.3
20260903053309 66 271 6.0 14.0 0.00 0.00 0.00 91 1021.1
20260903052310 65 248 7.0 17.0 0.00 0.00 0.00 91 1021.1
20260903051310 65 276 8.0 15.0 0.00 0.00 0.00 91 1021.1
20260903050310 65 216 7.0 11.0 0.00 0.00 0.00 91 1021.1
20260903045310 65 204 8.0 15.0 0.00 0.00 0.00 91 1021.2
20260903044310 65 258 5.0 11.0 0.00 0.00 0.00 91 1021.1
20260903041310 65 284 7.0 14.0 0.00 0.00 0.00 91 1021.3
20260903040310 65 238 7.0 11.0 0.00 0.00 0.00 92 1021.2
20260903034310 65 274 5.0 11.0 0.00 0.00 0.00 91 1021.2
20260903033310 65 274 4.0 10.0 0.00 0.00 0.00 92 1021.1
20260903032311 65 264 6.0 10.0 0.00 0.00 0.00 92 1021.1
20260903031311 65 219 5.0 12.0 0.00 0.00 0.00 92 1021.0
20260903030311 65 230 5.0 12.0 0.00 0.00 0.00 91 1021.0
20260903025310 65 264 4.0 11.0 0.00 0.00 0.00 91 1021.0
20260903023310 65 245 6.0 11.0 0.00 0.00 0.00 91 1021.1
20260903022310 65 246 4.0 11.0 0.00 0.00 0.00 91 1021.2
20260903021310 65 201 4.0 8.0 0.00 0.00 0.00 91 1021.2
20260903020309 65 218 5.0 9.0 0.00 0.00 0.00 91 1021.2
20260903015311 65 269 4.0 8.0 0.00 0.00 0.00 91 1021.5
20260903014310 65 239 4.0 9.0 0.00 0.00 0.00 91 1021.5
20260903013309 66 233 4.0 10.0 0.00 0.00 0.00 91 1021.6
20260903012309 66 274 4.0 9.0 0.00 0.00 0.00 91 1021.7
20260903011309 66 262 5.0 10.0 0.00 0.00 0.00 91 1021.8
20260903010310 66 308 5.0 11.0 0.00 0.00 0.00 91 1022.0
20260903004309 66 283 3.0 6.0 0.00 0.00 0.00 90 1021.6
20260903003309 66 248 5.0 7.0 0.00 0.00 0.00 90 1021.4
20260903002309 66 231 3.0 5.0 0.00 0.00 0.00 90 1021.7
20260903001309 66 274 3.0 5.0 0.00 0.00 0.00 90 1021.7
20260903000310 66 271 4.0 7.0 0.00 0.00 0.00 90 1021.9
20260902235311 66 264 5.0 9.0 0.00 0.00 0.00 90 1021.9
20260902230310 66 195 4.0 8.0 0.00 0.00 0.00 90 1021.9
20260902225311 66 217 3.0 6.0 0.00 0.00 0.00 90 1022.0
20260902224310 66 213 3.0 9.0 0.00 0.00 0.00 90 1022.0
20260902223310 66 278 3.0 9.0 0.00 0.00 0.00 90 1021.9
20260902222310 67 243 4.0 8.0 0.00 0.00 0.00 89 1021.9
20260902221310 67 279 5.0 11.0 0.00 0.00 0.00 89 1021.9
20260902215310 67 240 5.0 13.0 0.00 0.00 0.00 89 1021.9
20260902214310 67 230 5.0 11.0 0.00 0.00 0.00 90 1022.1
20260902213310 67 257 4.0 9.0 0.00 0.00 0.00 89 1022.1
20260902212310 67 225 5.0 9.0 0.00 0.00 0.00 89 1022.2
20260902211311 67 222 6.0 13.0 0.00 0.00 0.00 89 1022.3
20260902210311 67 199 6.0 11.0 0.00 0.00 0.00 89 1022.2
20260902205310 67 238 7.0 12.0 0.00 0.00 0.00 89 1022.2
20260902204310 68 269 5.0 11.0 0.00 0.00 0.00 88 1022.1
20260902203310 68 271 7.0 10.0 0.00 0.00 0.00 87 1022.2
20260902202311 68 223 4.0 9.0 0.00 0.00 0.00 87 1022.1
20260902201310 68 229 5.0 12.0 0.00 0.00 0.00 86 1022.1
20260902200310 68 228 8.0 13.0 0.00 0.00 0.00 86 1022.1
20260902195310 68 276 5.0 8.0 0.00 0.00 0.00 85 1021.8
20260902194311 68 283 5.0 13.0 0.00 0.00 0.00 85 1021.7
20260902193310 69 258 7.0 13.0 0.00 0.00 0.00 84 1021.6
20260902192310 69 226 5.0 13.0 0.00 0.00 0.00 83 1021.7
20260902191310 69 259 5.0 10.0 0.00 0.00 0.00 82 1021.7
20260902190310 60 222 6.0 11.0 0.00 0.00 0.00 84 1021.8
20260902185310 70 269 4.0 11.0 0.00 0.00 0.00 80 1021.4
20260902184310 70 257 6.0 12.0 0.00 0.00 0.00 79 1021.4
20260902182311 71 243 6.0 10.0 0.00 0.00 0.00 77 1021.2
20260902181310 72 265 5.0 14.0 0.00 0.00 0.00 76 1021.2
20260902180311 72 278 8.0 15.0 0.00 0.00 0.00 75 1021.2
20260902175310 73 303 5.0 11.0 0.00 0.00 0.00 74 1021.1
20260902174310 73 279 6.0 13.0 0.00 0.00 0.00 73 1021.2
20260902173310 73 276 7.0 14.0 0.00 0.00 0.00 72 1021.2
20260902172310 74 279 8.0 13.0 0.00 0.00 0.00 70 1021.2
20260902171310 75 290 10.0 20.0 0.00 0.00 0.00 68 1020.9
20260902170310 77 285 8.0 16.0 0.00 0.00 0.00 66 1021.0
20260902165310 77 264 7.0 16.0 0.00 0.00 0.00 66 1020.9
20260902163311 76 276 4.0 12.0 0.00 0.00 0.00 66 1020.8
20260902162310 78 206 6.0 14.0 0.00 0.00 0.00 63 1020.8
20260902161310 79 237 8.0 18.0 0.00 0.00 0.00 62 1020.7
20260902160310 79 288 8.0 14.0 0.00 0.00 0.00 61 1020.6
20260902155311 79 290 9.0 17.0 0.00 0.00 0.00 61 1020.6
20260902154310 79 271 7.0 17.0 0.00 0.00 0.00 60 1020.7
20260902153310 79 297 5.0 13.0 0.00 0.00 0.00 59 1020.8
20260902152310 79 309 7.0 16.0 0.00 0.00 0.00 59 1020.8
20260902151310 79 269 6.0 13.0 0.00 0.00 0.00 59 1020.9
20260902150310 79 279 7.0 15.0 0.00 0.00 0.00 58 1021.0
20260902145310 79 232 7.0 14.0 0.00 0.00 0.00 58 1021.0
20260902143310 79 201 8.0 13.0 0.00 0.00 0.00 57 1021.1
20260902142310 78 255 7.0 12.0 0.00 0.00 0.00 59 1021.1
20260902135310 78 311 6.0 12.0 0.00 0.00 0.00 57 1021.1
20260902134311 78 271 5.0 13.0 0.00 0.00 0.00 57 1021.2
20260902133310 78 257 5.0 14.0 0.00 0.00 0.00 58 1021.2
20260902132311 78 252 6.0 12.0 0.00 0.00 0.00 58 1021.3
20260902131310 78 204 8.0 13.0 0.00 0.00 0.00 57 1021.4
20260902130311 78 279 5.0 18.0 0.00 0.00 0.00 57 1021.5
20260902124311 77 223 3.0 11.0 0.00 0.00 0.00 59 1021.7
20260902123311 77 230 8.0 14.0 0.00 0.00 0.00 56 1021.8
20260902122311 77 288 3.0 16.0 0.00 0.00 0.00 56 1021.8
20260902121310 76 226 7.0 12.0 0.00 0.00 0.00 56 1021.7
20260902120309 76 276 6.0 11.0 0.00 0.00 0.00 56 1021.8
20260902115310 76 269 7.0 12.0 0.00 0.00 0.00 57 1021.9
20260902114309 75 286 7.0 16.0 0.00 0.00 0.00 57 1021.7
20260902113309 74 250 5.0 12.0 0.00 0.00 0.00 57 1021.8
20260902111309 74 253 6.0 15.0 0.00 0.00 0.00 58 1022.0
20260902110309 74 224 6.0 10.0 0.00 0.00 0.00 59 1022.1
20260902105310 73 229 7.0 10.0 0.00 0.00 0.00 59 1021.9
20260902102309 72 219 6.0 15.0 0.00 0.00 0.00 60 1022.0
20260902101309 71 218 6.0 11.0 0.00 0.00 0.00 62 1022.2
20260902100309 71 243 8.0 12.0 0.00 0.00 0.00 64 1022.3
20260902095309 70 193 4.0 15.0 0.00 0.00 0.00 67 1022.2
20260902094309 69 255 5.0 10.0 0.00 0.00 0.00 68 1022.2
20260902093309 69 262 6.0 13.0 0.00 0.00 0.00 69 1022.2
20260902092309 68 228 7.0 13.0 0.00 0.00 0.00 70 1022.4
20260902091309 68 243 5.0 9.0 0.00 0.00 0.00 71 1022.2
20260902090309 67 224 6.0 13.0 0.00 0.00 0.00 73 1022.3
20260902085309 67 221 4.0 8.0 0.00 0.00 0.00 76 1022.4
20260902084309 66 257 4.0 10.0 0.00 0.00 0.00 76 1022.2
20260902083309 66 229 3.0 9.0 0.00 0.00 0.00 76 1022.2
20260902082310 65 271 6.0 11.0 0.00 0.00 0.00 77 1022.3
20260902081309 65 185 5.0 12.0 0.00 0.00 0.00 78 1022.4
20260902074309 62 221 3.0 10.0 0.00 0.00 0.00 81 1022.0